Snowfall_Accumulation
0.0 0.0 0.0 0.0 0.0 0.0 0.0 0.0 0.0 0.0 0.0 0.0 0.0 0.0 0.0 0.0 0.0 0.0 0.0 0.0 0.0 0.0 0.0 0.0 0.0 0.0 0.0 0.0 0.0 0.0 0.0 0.0 0.0 0.0 0.0 0.0 0.0 0.0 0.0 0.0 0.0 0.0 0.0
0.0 0.0 0.0 0.0 0.0 0.0 0.0 0.0 0.0 0.0 0.0 0.0 0.0 0.0 0.0 0.0 0.0 0.0 0.0 0.0 0.0 0.0 0.0 0.0 0.0 0.0 0.0 0.0 0.0 0.0 0.0 0.0 0.0 0.0 0.0 0.0 0.0 0.0 0.0 0.0 0.0 0.0 0.0
0.0 0.0 0.0 0.0 0.0 0.0 0.0 0.0 0.0 0.0 0.0 0.0 0.0 0.0 0.0 0.0 0.0 0.0 0.0 0.0 0.0 0.0 0.0 0.0 0.0 0.0 0.0 0.0 0.0 0.0 0.0 0.0 0.0 0.1 0.1 0.1 0.1 0.1 0.1 0.0 0.0 0.0 0.0
0.0 0.0 0.0 0.0 0.0 0.0 0.0 0.0 0.0 0.0 0.0 0.0 0.0 0.0 0.0 0.0 0.0 0.0 0.0 0.0 0.0 0.0 0.0 0.0 0.0 0.0 0.0 0.0 0.0 0.0 0.0 0.1 0.1 0.1 0.2 0.2 0.2 0.2 0.2 0.2 0.4 0.3 0.3
0.0 0.0 0.0 0.0 0.0 0.0 0.0 0.0 0.0 0.0 0.0 0.0 0.0 0.0 0.0 0.0 0.0 0.0 0.0 0.0 0.0 0.0 0.0 0.0 0.0 0.0 nan nan 0.0 0.0 0.0 0.1 0.2 0.3 0.3 0.3 0.3 0.4 0.4 0.3 0.5 0.3 0.3
0.0 0.0 0.0 0.0 0.0 0.0 0.0 0.0 0.0 0.0 0.0 0.0 0.0 0.0 0.0 0.0 nan nan 0.0 0.0 0.0 0.0 0.0 0.0 0.0 0.0 0.0 nan nan nan nan 0.0 0.0 0.4 0.3 0.2 0.0 0.3 0.4 0.5 0.6 1.0 1.2
0.0 0.0 0.0 0.0 0.0 0.0 0.0 0.0 0.0 0.0 0.0 0.0 0.0 0.0 0.0 0.0 nan nan nan 0.0 0.0 0.0 0.0 0.0 0.0 0.0 0.1 0.0 nan nan nan nan nan 0.0 0.0 0.1 0.1 0.0 0.1 0.1 0.1 0.7 0.7
0.0 0.0 0.1 0.1 0.1 0.1 0.1 0.1 0.1 0.0 0.0 0.0 0.0 0.0 0.0 0.0 nan nan nan 0.0 0.0 0.0 0.0 0.0 0.0 0.0 0.0 0.0 0.0 0.0 0.0 0.0 0.0 0.0 0.0 0.0 0.0 0.0 0.0 0.0 0.1 0.1 0.8
0.0 0.0 0.1 0.1 0.1 0.1 0.2 0.1 0.1 0.1 0.1 0.0 0.0 0.0 0.0 0.0 nan nan 0.0 0.0 0.0 0.0 0.0 0.0 0.0 0.0 nan nan 0.0 0.0 0.1 0.0 nan nan nan nan nan nan nan 1.1 4.9 7.5 4.8
0.0 0.0 0.1 0.1 0.2 0.2 0.1 0.1 0.2 0.1 0.1 0.6 0.1 0.1 0.0 0.0 nan nan nan 0.3 0.1 0.5 0.1 0.0 0.0 0.0 nan nan 0.0 0.1 0.2 0.1 0.2 0.9 0.1 0.0 nan nan nan 0.1 1.4 5.7 4.6
0.1 0.1 0.2 0.1 0.3 0.1 0.2 0.2 0.2 0.2 0.2 0.2 0.2 0.2 0.1 0.1 0.0 nan nan 0.2 0.6 1.1 1.0 0.9 0.5 nan nan nan nan 0.1 0.1 0.1 0.5 0.7 0.8 1.3 0.9 0.5 0.8 0.6 0.2 0.9 2.7
0.3 0.3 0.4 0.8 0.5 0.3 1.1 0.5 0.7 0.4 0.5 0.5 0.6 1.0 1.2 0.2 nan nan nan nan nan 1.1 0.6 0.7 0.6 nan nan nan 0.3 nan nan 0.4 2.5 3.2 2.8 2.5 1.8 1.5 1.1 1.0 0.1 0.4 0.6
1.5 2.7 2.2 1.6 1.4 0.9 1.4 0.8 2.2 0.7 1.8 0.7 2.2 2.2 1.8 1.7 1.4 nan nan nan nan 1.0 0.7 0.7 nan nan nan nan nan nan 0.0 2.2 3.4 4.8 3.2 2.2 1.3 1.1 0.7 1.3 0.6 0.5 0.5
3.7 1.9 1.3 1.7 1.0 1.2 2.2 2.2 3.1 2.8 2.6 2.8 3.4 3.4 2.5 2.6 1.6 1.4 2.0 1.1 0.5 1.5 nan 1.1 nan 0.8 nan nan 1.3 1.0 1.5 2.0 2.6 3.0 2.8 2.0 2.0 3.0 2.9 2.0 3.1 2.7 5.8
2.6 1.5 1.4 2.2 2.4 1.8 1.8 2.6 2.3 1.0 2.4 5.2 6.2 4.8 6.3 6.0 3.7 1.4 3.5 3.6 2.8 3.1 3.6 5.1 4.3 3.0 3.2 2.7 3.4 2.9 2.5 3.2 4.1 3.8 4.3 4.5 4.2 3.9 3.9 2.9 3.4 4.7 6.6
2.0 3.2 3.0 3.1 2.7 2.5 2.7 3.0 nan nan nan nan nan 3.6 5.3 nan nan nan nan nan nan nan 9.3 10.7 5.8 4.4 3.6 3.8 4.9 5.1 3.8 3.7 3.8 4.6 5.4 5.6 6.9 6.0 6.0 6.4 6.0 6.7 7.6
5.7 4.4 5.2 4.5 4.1 4.1 4.0 4.3 6.9 4.0 nan nan nan nan nan nan nan nan nan nan nan nan 15.9 9.0 8.1 6.1 5.8 4.9 6.1 5.6 6.3 4.4 3.1 5.1 5.8 6.3 7.3 7.7 8.7 7.9 7.0 6.4 8.9
5.3 2.1 5.1 4.7 4.2 4.6 4.8 4.9 5.3 7.6 9.1 6.9 nan nan nan nan nan nan nan nan 15.2 nan 12.1 15.3 14.9 12.5 10.2 8.8 7.3 7.4 7.5 7.2 6.7 6.8 7.2 9.8 11.5 12.7 12.5 12.3 9.1 11.2 10.8
7.1 5.3 5.8 5.5 5.1 5.3 5.8 5.3 5.4 6.3 7.0 9.2 9.6 8.4 4.0 nan nan nan nan 11.6 17.0 15.6 15.4 15.9 13.2 13.3 11.7 11.8 11.1 12.2 11.0 11.7 10.8 13.8 13.8 14.9 13.9 15.0 15.1 11.2 9.7 6.4 7.3
8.3 3.8 6.1 9.3 8.6 7.7 6.0 7.7 7.6 8.0 9.3 10.7 11.0 9.9 12.1 11.1 15.5 15.7 13.2 17.9 18.7 17.3 15.6 17.3 17.5 18.4 19.4 18.3 17.9 16.7 17.2 18.3 16.9 17.0 16.8 16.3 15.5 16.3 13.2 16.3 14.4 13.5 14.0
14.5 12.7 3.2 11.8 13.6 14.0 14.1 12.2 10.9 13.7 12.1 13.5 11.2 10.7 nan 15.0 18.1 18.5 18.2 17.9 19.7 21.1 18.2 19.2 20.5 24.9 25.2 27.3 24.0 23.7 22.5 16.0 18.7 20.0 20.7 20.6 20.2 28.1 15.6 12.1 16.2 16.8 16.1
17.5 17.8 17.3 18.7 14.8 15.5 17.2 13.5 14.2 14.3 14.0 13.0 11.3 11.7 nan 14.9 17.6 17.6 19.9 23.5 27.6 28.5 28.8 32.7 31.7 33.0 30.1 28.7 26.3 24.7 22.1 24.5 25.2 24.0 20.0 21.0 24.0 22.9 21.2 16.8 16.9 15.3 18.2
16.8 15.7 16.6 16.7 16.2 7.4 17.3 19.3 18.2 17.7 17.1 18.5 17.3 18.2 19.7 23.3 21.9 22.4 28.4 31.3 27.4 26.7 28.5 29.1 27.7 27.5 25.6 27.5 24.8 24.1 25.5 27.0 26.7 31.1 26.6 26.5 26.2 28.0 24.5 22.6 20.4 22.7 21.5
15.9 15.9 15.7 19.0 18.0 16.8 19.0 20.0 18.2 7.1 19.2 20.8 28.4 25.1 19.1 22.6 28.0 23.5 24.1 27.0 24.0 32.8 26.4 27.3 24.1 23.6 24.6 31.5 36.4 35.3 36.9 37.9 37.0 35.0 32.6 26.8 26.4 21.6 23.5 25.4 21.1 19.4 18.1
20.0 18.3 18.1 17.0 22.3 19.7 18.8 21.9 18.5 23.4 26.0 22.5 25.0 20.8 21.4 20.1 20.5 25.7 24.9 22.0 23.8 22.4 20.5 20.2 20.6 20.8 21.0 21.9 27.2 31.8 29.9 4.7 20.9 5.1 31.1 24.9 27.7 27.9 27.1 23.6 22.3 20.6 18.4
17.1 18.3 18.8 19.1 19.1 20.2 20.6 20.4 20.9 18.1 21.4 22.2 21.2 21.5 19.4 19.5 19.1 21.0 20.0 20.2 17.6 18.3 18.9 20.1 20.1 18.5 17.8 19.1 19.8 7.4 4.5 4.0 26.0 4.5 27.0 24.8 26.9 25.9 25.4 25.2 24.4 23.3 20.0
Water_Equivalent
0.00 0.00 0.00 0.00 0.00 0.00 0.00 0.00 0.00 0.00 0.00 0.00 0.00 0.00 0.00 0.00 0.00 0.00 0.00 0.00 0.00 0.00 0.00 0.00 0.00 0.00 0.00 0.00 0.00 0.00 0.00 0.00 0.00 0.00 0.00 0.00 0.00 0.00 0.00 0.00 0.00 0.00 0.00
0.00 0.00 0.00 0.00 0.00 0.00 0.00 0.00 0.00 0.00 0.00 0.00 0.00 0.00 0.00 0.00 0.00 0.00 0.00 0.00 0.00 0.00 0.00 0.00 0.00 0.00 0.00 0.00 0.00 0.00 0.00 0.00 0.00 0.00 0.00 0.00 0.00 0.00 0.00 0.00 0.00 0.00 0.00
0.00 0.00 0.00 0.00 0.00 0.00 0.00 0.00 0.00 0.00 0.00 0.00 0.00 0.00 0.00 0.00 0.00 0.00 0.00 0.00 0.00 0.00 0.00 0.00 0.00 0.00 0.00 0.00 0.00 0.00 0.00 0.00 0.00 0.02 0.03 0.02 0.03 0.03 0.05 0.02 0.00 0.00 0.00
0.00 0.00 0.00 0.00 0.00 0.00 0.00 0.00 0.00 0.00 0.00 0.00 0.00 0.00 0.00 0.00 0.00 0.00 0.00 0.00 0.00 0.00 0.00 0.00 0.00 0.00 0.00 0.00 0.00 0.00 0.00 0.03 0.04 0.06 0.07 0.07 0.07 0.09 0.08 0.09 0.13 0.11 0.10
0.00 0.00 0.00 0.00 0.00 0.00 0.00 0.00 0.00 0.00 0.00 0.00 0.00 0.00 0.00 0.00 0.00 0.00 0.00 0.00 0.00 0.00 0.00 0.00 0.00 0.00 nan nan 0.01 0.01 0.00 0.02 0.09 0.10 0.11 0.10 0.10 0.14 0.13 0.11 0.17 0.12 0.09
0.00 0.00 0.00 0.00 0.00 0.00 0.00 0.00 0.00 0.00 0.00 0.00 0.00 0.00 0.00 0.00 nan nan 0.00 0.00 0.00 0.00 0.00 0.00 0.00 0.00 0.00 nan nan nan nan 0.00 0.01 0.14 0.10 0.08 0.01 0.11 0.13 0.15 0.19 0.29 0.30
0.00 0.00 0.01 0.01 0.01 0.01 0.01 0.02 0.02 0.01 0.01 0.01 0.00 0.00 0.00 0.00 nan nan nan 0.01 0.00 0.00 0.00 0.00 0.00 0.00 0.02 0.00 nan nan nan nan nan 0.00 0.01 0.04 0.02 0.01 0.02 0.03 0.03 0.19 0.21
0.01 0.01 0.02 0.02 0.02 0.02 0.02 0.02 0.02 0.01 0.01 0.01 0.01 0.00 0.00 0.00 nan nan nan 0.00 0.00 0.00 0.00 0.00 0.00 0.00 0.00 0.00 0.00 0.01 0.01 0.01 0.00 0.00 0.00 0.01 0.00 0.01 0.01 0.01 0.02 0.03 0.23
0.01 0.01 0.02 0.02 0.03 0.03 0.04 0.03 0.02 0.02 0.02 0.01 0.01 0.01 0.01 0.01 nan nan 0.00 0.00 0.00 0.00 0.00 0.00 0.00 0.00 nan nan 0.01 0.02 0.02 0.01 nan nan nan nan nan nan nan 0.39 1.38 1.91 1.03
0.01 0.01 0.02 0.02 0.04 0.04 0.02 0.03 0.04 0.03 0.02 0.18 0.03 0.02 0.00 0.01 nan nan nan 0.13 0.02 0.17 0.02 0.02 0.01 0.01 nan nan 0.01 0.02 0.05 0.03 0.08 0.32 0.04 0.02 nan nan nan 0.02 0.40 1.32 0.97
0.02 0.03 0.03 0.03 0.06 0.03 0.04 0.04 0.05 0.05 0.04 0.07 0.06 0.04 0.04 0.02 0.02 nan nan 0.08 0.22 0.33 0.31 0.25 0.16 nan nan nan nan 0.02 0.03 0.03 0.16 0.21 0.26 0.41 0.28 0.17 0.28 0.18 0.06 0.25 0.61
0.06 0.06 0.09 0.17 0.10 0.07 0.26 0.12 0.21 0.11 0.13 0.11 0.14 0.24 0.29 0.04 nan nan nan nan nan 0.36 0.18 0.20 0.18 nan nan nan 0.13 nan nan 0.15 0.80 0.94 0.81 0.65 0.46 0.41 0.32 0.27 0.04 0.11 0.16
0.28 0.51 0.43 0.34 0.31 0.22 0.35 0.18 0.55 0.18 0.42 0.15 0.47 0.45 0.38 0.40 0.38 nan nan nan nan 0.33 0.24 0.21 nan nan nan nan nan nan 0.00 0.67 0.95 1.21 0.76 0.49 0.33 0.28 0.16 0.28 0.13 0.10 0.09
0.72 0.32 0.22 0.31 0.22 0.24 0.49 0.52 0.74 0.61 0.54 0.59 0.70 0.69 0.50 0.52 0.36 0.37 0.58 0.35 0.14 0.50 nan 0.38 nan 0.28 nan nan 0.37 0.32 0.46 0.54 0.61 0.67 0.59 0.41 0.44 0.59 0.57 0.41 0.59 0.52 0.97
0.44 0.21 0.25 0.44 0.48 0.32 0.32 0.54 0.46 0.20 0.53 1.10 1.39 0.99 1.21 1.15 0.74 0.34 0.91 1.00 0.87 0.90 0.98 1.30 1.06 0.70 0.70 0.61 0.76 0.69 0.65 0.73 0.86 0.82 0.84 0.84 0.79 0.76 0.73 0.55 0.61 0.85 1.10
0.26 0.49 0.50 0.52 0.46 0.41 0.43 0.48 nan nan nan nan nan 0.81 1.25 nan nan nan nan nan nan nan 2.40 2.35 1.09 0.83 0.65 0.69 0.90 0.87 0.73 0.75 0.71 0.84 0.98 1.00 1.09 0.93 0.93 1.08 1.01 1.12 1.17
0.71 0.49 0.67 0.58 0.54 0.59 0.62 0.70 0.89 0.68 nan nan nan nan nan nan nan nan nan nan nan nan 3.72 1.75 1.43 1.00 0.94 0.79 0.94 0.87 0.90 0.70 0.43 0.86 0.86 0.97 1.11 1.23 1.41 1.22 1.07 0.99 1.44
0.68 0.68 0.72 0.69 0.66 0.72 0.77 0.81 0.87 1.07 1.23 0.98 nan nan nan nan nan nan nan nan 3.27 nan 2.64 2.79 2.36 1.88 1.41 1.27 1.04 1.02 1.02 0.99 0.93 0.99 1.05 1.51 1.80 1.96 1.89 1.89 1.41 1.77 1.67
0.80 0.66 0.75 0.73 0.70 0.76 0.84 0.75 0.82 0.85 0.88 1.13 1.12 1.14 0.95 nan nan nan nan 2.10 2.92 2.54 2.51 2.63 2.18 2.01 1.59 1.68 1.57 1.79 1.54 1.62 1.52 2.08 2.13 2.33 2.15 2.32 2.33 1.70 1.42 1.25 1.34
0.88 0.93 0.86 1.13 1.02 0.91 0.66 0.83 0.77 0.81 0.92 1.09 1.14 1.03 1.74 1.91 2.57 2.66 2.17 3.10 3.09 2.73 2.36 2.63 2.66 2.91 3.02 2.81 2.74 2.52 2.57 2.76 2.50 2.55 2.52 2.47 2.37 2.55 1.81 2.43 2.15 1.87 2.13
1.48 1.24 1.05 1.13 1.37 1.43 1.45 1.19 1.01 1.38 1.19 1.40 1.12 1.10 nan 1.96 2.11 2.34 2.65 2.47 2.87 3.12 2.56 2.79 2.97 3.86 3.99 4.45 3.70 3.59 3.32 2.13 2.65 2.90 3.08 3.07 3.00 3.88 2.32 1.65 2.32 2.46 2.38
1.69 1.75 1.71 1.85 1.33 1.43 1.68 1.23 1.33 1.35 1.31 1.18 1.01 1.15 nan 1.51 1.80 1.84 2.07 2.66 3.29 3.40 3.87 4.53 4.42 4.81 4.24 3.96 3.56 3.35 2.83 3.28 3.53 3.29 2.65 2.80 3.32 2.96 2.94 2.15 2.25 1.99 2.55
1.48 1.30 1.43 1.43 1.39 1.55 1.59 1.89 1.72 1.67 1.57 1.76 1.62 1.64 1.83 2.37 2.15 2.14 3.05 3.40 2.80 2.67 3.02 3.23 3.04 2.96 2.80 3.14 2.79 2.70 2.85 3.13 3.20 4.20 3.00 3.08 3.00 3.43 3.10 2.81 2.53 2.84 2.74
1.33 1.34 1.33 1.78 1.61 1.42 1.70 1.82 1.59 1.63 1.73 1.92 2.96 2.48 1.63 2.08 2.83 2.13 2.23 2.65 2.23 3.65 2.65 2.82 2.35 2.30 2.51 3.75 4.75 4.64 5.00 5.25 4.99 4.60 4.13 2.91 2.85 2.48 2.53 2.96 2.38 2.27 1.95
1.73 1.50 1.52 1.41 2.15 1.75 1.63 2.02 1.52 2.13 2.49 2.03 2.42 1.81 1.86 1.71 1.83 2.62 2.46 2.04 2.29 2.13 1.86 1.84 1.92 1.98 2.03 2.15 2.96 3.82 4.01 1.56 2.96 1.69 3.64 2.58 3.02 3.06 2.92 2.51 2.37 2.10 1.87
1.39 1.50 1.57 1.62 1.60 1.77 1.86 1.83 1.92 1.54 1.96 2.09 1.94 1.99 1.71 1.71 1.71 2.06 1.90 1.92 1.56 1.65 1.73 1.90 1.90 1.70 1.61 1.80 1.91 1.79 1.47 1.31 3.13 1.47 2.91 2.42 2.72 2.49 2.45 2.47 2.33 2.26 1.87
SL_Ratio
nan nan nan nan nan nan nan nan nan nan nan nan nan nan nan nan nan nan nan nan nan nan nan nan nan nan nan nan nan nan nan nan nan nan nan nan nan nan nan nan nan nan nan
nan nan nan nan nan nan nan nan nan nan nan nan nan nan nan nan nan nan nan nan nan nan nan nan nan nan nan nan nan nan nan nan nan nan nan nan nan nan nan nan nan nan nan
nan nan nan nan nan nan nan nan nan nan nan nan nan nan nan nan nan nan nan nan nan nan nan nan nan nan nan nan nan nan nan nan nan 2.5 2.5 2.6 2.5 2.5 2.5 2.4 nan nan nan
nan nan nan nan nan nan nan nan nan nan nan nan nan nan nan nan nan nan nan nan nan nan nan nan nan nan nan nan nan nan nan 2.4 2.5 2.5 2.5 2.5 2.5 2.6 2.5 2.7 3.0 2.6 2.6
nan nan nan nan nan nan nan nan nan nan nan nan nan nan nan nan nan nan nan nan nan nan nan nan nan nan nan nan 2.5 2.2 2.5 2.6 2.5 2.5 2.6 2.7 2.8 3.1 3.1 2.9 2.9 2.8 2.9
nan nan nan nan nan 5.0 3.0 2.9 2.5 3.3 nan nan nan nan nan nan nan nan nan nan nan nan nan nan nan nan nan nan nan nan nan nan 2.9 2.7 2.8 2.9 2.8 2.8 2.8 3.0 3.1 3.6 4.0
0.0 2.9 2.7 2.9 2.6 2.8 2.6 2.9 2.8 2.9 3.0 2.7 2.5 nan nan nan nan nan nan 2.5 2.5 nan nan nan nan nan 2.4 nan nan nan nan nan nan nan 3.2 2.9 3.5 3.0 3.1 3.5 3.6 3.5 3.4
2.5 2.9 3.1 3.0 3.4 3.6 3.4 3.5 3.2 3.0 3.0 3.0 3.0 3.3 nan nan nan nan nan nan nan nan nan nan nan 0.0 5.0 3.0 3.0 3.5 3.1 3.5 2.5 5.0 2.5 2.8 2.5 2.5 2.7 3.3 3.8 3.5 3.6
3.1 3.2 3.4 3.5 4.0 3.9 4.2 3.8 3.5 3.4 3.2 3.0 2.8 2.9 2.7 3.0 nan nan nan 2.5 nan 2.5 nan nan 0.0 2.9 nan nan 2.9 3.0 3.2 2.6 nan nan nan nan nan nan nan 2.9 3.6 3.9 4.7
3.2 3.3 3.5 3.9 4.4 4.4 3.9 4.2 3.8 3.2 3.3 3.2 3.2 2.9 3.3 2.8 nan nan nan 2.5 3.0 2.9 3.0 2.8 2.6 2.5 nan nan 2.9 3.5 3.6 3.3 2.9 2.7 2.9 2.8 nan nan nan 3.1 3.4 4.3 4.8
4.2 4.5 4.8 4.5 4.7 4.2 4.1 4.0 3.9 3.7 4.0 3.6 3.8 3.5 3.1 3.0 2.9 nan nan 2.8 3.0 3.2 3.2 3.4 3.1 nan nan nan nan 3.6 3.8 3.0 2.9 3.1 3.2 3.2 3.1 3.2 3.0 3.1 3.4 3.6 4.4
5.0 5.3 5.2 4.8 4.5 4.2 4.2 3.9 3.4 3.4 3.7 4.0 4.2 4.1 3.9 3.9 nan nan nan nan nan 3.1 3.4 3.4 3.5 nan nan nan 2.5 nan nan 3.0 3.1 3.4 3.5 3.8 3.8 3.8 3.5 3.5 3.9 3.9 4.0
5.5 5.3 5.1 4.8 4.5 4.3 4.1 4.3 4.1 4.0 4.3 5.0 4.7 4.7 4.8 4.3 3.7 nan nan nan nan 3.0 3.0 3.6 nan nan nan nan nan nan 3.8 3.3 3.6 4.0 4.2 4.4 4.1 3.9 4.4 4.6 4.8 5.0 5.2
5.1 6.0 5.8 5.4 4.6 5.1 4.5 4.3 4.3 4.6 4.9 4.8 4.9 5.0 5.0 5.0 4.5 3.8 3.4 3.1 3.2 3.0 nan 3.0 nan 2.9 nan nan 3.3 3.1 3.2 3.7 4.2 4.5 4.8 4.8 4.6 5.1 5.0 4.8 5.2 5.2 5.9
6.0 7.1 5.5 5.1 5.1 5.6 5.4 4.8 4.9 4.8 4.5 4.7 4.5 4.8 5.2 5.2 5.0 4.2 3.9 3.6 3.2 3.4 3.6 3.9 4.1 4.3 4.6 4.5 4.4 4.2 3.9 4.3 4.7 4.7 5.1 5.4 5.3 5.2 5.4 5.2 5.6 5.5 6.0
7.6 6.6 6.0 5.8 5.9 6.2 6.4 6.4 nan nan nan nan nan 4.5 4.2 nan nan nan nan nan nan nan 3.9 4.6 5.3 5.3 5.6 5.5 5.5 5.9 5.3 4.9 5.4 5.5 5.5 5.6 6.4 6.4 6.5 5.9 5.9 6.0 6.5
8.0 8.9 7.8 7.8 7.5 6.9 6.4 6.2 7.7 5.9 nan nan nan nan nan nan nan nan nan nan nan nan 4.3 5.1 5.7 6.2 6.2 6.2 6.4 6.4 7.0 6.3 7.2 6.0 6.6 6.5 6.6 6.3 6.2 6.4 6.5 6.4 6.2
7.8 3.0 7.0 6.9 6.4 6.4 6.2 6.1 6.1 7.0 7.4 7.1 nan nan nan nan nan nan nan nan 4.6 nan 4.6 5.5 6.3 6.7 7.2 6.9 7.0 7.3 7.4 7.3 7.2 6.9 6.9 6.5 6.4 6.5 6.6 6.5 6.4 6.3 6.4
8.8 8.1 7.8 7.6 7.3 6.9 6.9 7.1 6.6 7.4 7.9 8.1 8.6 7.4 4.2 nan nan nan nan 5.5 5.8 6.1 6.2 6.1 6.1 6.6 7.3 7.0 7.1 6.8 7.1 7.2 7.1 6.6 6.5 6.4 6.5 6.5 6.5 6.6 6.8 5.1 5.4
9.4 4.0 7.0 8.2 8.5 8.5 9.1 9.3 9.9 10.0 10.1 9.8 9.6 9.6 7.0 5.8 6.0 5.9 6.1 5.8 6.0 6.3 6.6 6.6 6.6 6.3 6.4 6.5 6.5 6.6 6.7 6.6 6.7 6.7 6.7 6.6 6.6 6.4 7.3 6.7 6.7 7.2 6.6
9.8 10.2 3.0 10.5 9.9 9.8 9.7 10.2 10.7 9.9 10.2 9.6 10.0 9.8 nan 7.7 8.5 7.9 6.9 7.3 6.9 6.8 7.1 6.9 6.9 6.5 6.3 6.1 6.5 6.6 6.8 7.5 7.0 6.9 6.7 6.7 6.7 7.2 6.7 7.3 7.0 6.8 6.8
10.4 10.2 10.1 10.1 11.1 10.9 10.2 11.0 10.7 10.5 10.7 11.0 11.2 10.2 nan 9.9 9.8 9.6 9.6 8.8 8.4 8.4 7.5 7.2 7.2 6.9 7.1 7.2 7.4 7.4 7.8 7.5 7.1 7.3 7.6 7.5 7.2 7.7 7.2 7.8 7.5 7.7 7.1
11.3 12.0 11.7 11.7 11.6 4.8 10.9 10.2 10.6 10.6 10.9 10.5 10.7 11.1 10.8 9.8 10.2 10.5 9.3 9.2 9.8 10.0 9.4 9.0 9.1 9.3 9.1 8.8 8.9 8.9 8.9 8.6 8.4 7.4 8.9 8.6 8.7 8.1 7.9 8.1 8.1 8.0 7.8
12.0 11.8 11.8 10.7 11.2 11.9 11.2 11.0 11.4 4.4 11.1 10.9 9.6 10.2 11.7 10.9 9.9 11.0 10.8 10.2 10.7 9.0 10.0 9.7 10.2 10.3 9.8 8.4 7.7 7.6 7.4 7.2 7.4 7.6 7.9 9.2 9.3 8.7 9.3 8.6 8.9 8.5 9.3
11.6 12.2 11.9 12.1 10.4 11.3 11.5 10.9 12.2 11.0 10.4 11.1 10.3 11.4 11.5 11.8 11.2 9.8 10.1 10.8 10.4 10.5 11.0 11.0 10.7 10.5 10.4 10.2 9.2 8.3 7.4 3.0 7.1 3.0 8.6 9.6 9.2 9.1 9.3 9.4 9.4 9.8 9.8
12.3 12.2 12.0 11.8 11.9 11.4 11.1 11.1 10.9 11.8 10.9 10.6 10.9 10.8 11.4 11.4 11.2 10.2 10.5 10.5 11.3 11.1 10.9 10.6 10.6 10.9 11.1 10.6 10.4 4.2 3.0 3.0 8.3 3.0 9.3 10.2 9.9 10.4 10.4 10.2 10.5 10.3 10.7